Brinson, GA

7:42 PM EST on February 13, 2016 (GMT -0500)
Decatur County Industrial

Weather History for KBGE - May, 2013

Change the Weather History Date:

Tuesday, May 21, 2013

  Actual Average (KMAI) Record (KMAI)
Temperature  
Mean Temperature 82 °F 76 °F  
Max Temperature 95 °F 88 °F - ()
Min Temperature 68 °F 65 °F - ()
Degree Days  
Heating Degree Days 0    
Month to date heating degree days  
Since 1 July heating degree days  
Cooling Degree Days 16    
Month to date cooling degree days  
Year to date cooling degree days  
Growing Degree Days 32 (Base 50)    
Moisture  
Dew Point 67 °F    
Average Humidity 65    
Maximum Humidity 100    
Minimum Humidity 36    
Precipitation  
Precipitation 0.00 in 0.10 in - ()
Month to date precipitation 1.72  
Year to date precipitation 20.95  
Sea Level Pressure  
Sea Level Pressure 29.99 in    
Wind  
Wind Speed 3 mph (SSE)    
Max Wind Speed 17 mph    
Max Gust Speed 22 mph    
Visibility 10 miles    
Events      
T = Trace of Precipitation, MM = Missing Value Source: NWS Daily Summary

Daily Weather History Graph

Daily Weather History Graph

Search for Another Location

Airport or City:

Trip Planner

Search our weather history database for the weather conditions in past years. The results will help you decide how hot, cold, wet, or windy it might be!

Date:

Astronomy

May. 21, 2013 Rise Set
Actual Time 6:39 AM EDT 8:30 PM EDT
Civil Twilight 6:12 AM EDT 8:57 PM EDT
Nautical Twilight 5:40 AM EDT 9:30 PM EDT
Astronomical Twilight 5:06 AM EDT 10:04 PM EDT
Moon 4:56 PM EDT (5/21) 3:51 AM EDT (5/21)
Length of Visible Light 14h 45m
Length of Day
13h 51m
Waxing Gibbous, 84% of the Moon is Illuminated
May 21
Waxing Gibbous
May 25
Full
May 31
Last Quarter
Jun 8
New
Jun 16
First Quarter

Hourly Weather History & Observations

Time (EDT) Temp. Heat Index Dew Point Humidity Pressure Visibility Wind Dir Wind Speed Gust Speed Precip Events Conditions
12:15 AM 77.0 °F - 68.0 °F 74% 30.01 in 10.0 mi SE 4.6 mph - N/A   Clear
12:35 AM 77.0 °F - 68.0 °F 74% 30.02 in 10.0 mi SSE 4.6 mph - N/A   Clear
12:55 AM 77.0 °F - 68.0 °F 74% 30.02 in 10.0 mi South 4.6 mph - N/A   Clear
1:15 AM 77.0 °F - 69.8 °F 78% 30.02 in 10.0 mi SSW 5.8 mph - N/A   Clear
1:35 AM 77.0 °F - 71.6 °F 83% 30.01 in 10.0 mi SSW 6.9 mph - N/A   Clear
1:55 AM 73.4 °F - 69.8 °F 88% 30.01 in 10.0 mi SSW 5.8 mph - N/A   Clear
2:15 AM 73.4 °F - 69.8 °F 88% 30.00 in 10.0 mi SW 4.6 mph - N/A   Clear
2:35 AM 73.4 °F - 69.8 °F 88% 30.00 in 10.0 mi SW 4.6 mph - N/A   Clear
2:55 AM 73.4 °F - 69.8 °F 88% 29.99 in 10.0 mi Calm Calm - N/A   Clear
3:15 AM 71.6 °F - 68.0 °F 88% 29.98 in 10.0 mi Calm Calm - N/A   Clear
3:35 AM 71.6 °F - 68.0 °F 88% 29.98 in 10.0 mi Calm Calm - N/A   Clear
3:55 AM 71.6 °F - 68.0 °F 88% 29.98 in 10.0 mi Calm Calm - N/A   Clear
4:15 AM 71.6 °F - 69.8 °F 94% 29.98 in 10.0 mi Calm Calm - N/A   Clear
4:35 AM 71.6 °F - 69.8 °F 94% 29.99 in 10.0 mi Calm Calm - N/A   Clear
4:55 AM 69.8 °F - 68.0 °F 94% 29.98 in 10.0 mi Calm Calm - N/A   Clear
5:15 AM 69.8 °F - 68.0 °F 94% 30.00 in 10.0 mi Calm Calm - N/A   Clear
5:35 AM 69.8 °F - 68.0 °F 94% 30.00 in 7.0 mi Calm Calm - N/A   Clear
5:55 AM 69.8 °F - 68.0 °F 94% 30.01 in 7.0 mi Calm Calm - N/A   Clear
6:15 AM 69.8 °F - 68.0 °F 94% 30.02 in 7.0 mi Calm Calm - N/A   Clear
6:35 AM 68.0 °F - 68.0 °F 100% 30.02 in 7.0 mi Calm Calm - N/A   Clear
6:55 AM 69.8 °F - 68.0 °F 94% 30.03 in 7.0 mi Calm Calm - N/A   Clear
7:15 AM 69.8 °F - 68.0 °F 94% 30.03 in 7.0 mi Calm Calm - N/A   Clear
7:35 AM 71.6 °F - 69.8 °F 94% 30.03 in 7.0 mi Calm Calm - N/A   Clear
7:55 AM 71.6 °F - 69.8 °F 94% 30.04 in 10.0 mi Calm Calm - N/A   Clear
8:15 AM 71.6 °F - 69.8 °F 94% 30.04 in 10.0 mi Calm Calm - N/A   Clear
8:35 AM 77.0 °F - 69.8 °F 78% 30.04 in 10.0 mi Calm Calm - N/A   Clear
8:55 AM 77.0 °F - 69.8 °F 78% 30.05 in 10.0 mi Calm Calm - N/A   Clear
9:15 AM 77.0 °F - 68.0 °F 74% 30.05 in 10.0 mi Calm Calm - N/A   Clear
9:35 AM 78.8 °F - 69.8 °F 74% 30.05 in 10.0 mi SSE 3.5 mph - N/A   Clear
9:55 AM 80.6 °F 83.9 °F 69.8 °F 70% 30.04 in 10.0 mi Calm Calm - N/A   Clear
10:15 AM 80.6 °F 83.2 °F 68.0 °F 65% 30.05 in 10.0 mi SSE 3.5 mph - N/A   Clear
10:35 AM 80.6 °F 83.2 °F 68.0 °F 65% 30.05 in 10.0 mi Calm Calm - N/A   Clear
10:55 AM 82.4 °F 84.6 °F 66.2 °F 58% 30.04 in 10.0 mi SW 3.5 mph - N/A   Clear
11:15 AM 82.4 °F 83.9 °F 64.4 °F 54% 30.05 in 10.0 mi Calm Calm - N/A   Clear
11:35 AM 84.2 °F 85.6 °F 64.4 °F 51% 30.05 in 10.0 mi Calm Calm - N/A   Clear
11:55 AM 86.0 °F 87.3 °F 64.4 °F 48% 30.05 in 10.0 mi NW 4.6 mph - N/A   Clear
12:15 PM 86.0 °F 87.3 °F 64.4 °F 48% 30.04 in 10.0 mi Calm Calm - N/A   Clear
12:35 PM 87.8 °F 89.4 °F 64.4 °F 46% 30.04 in 10.0 mi Calm Calm - N/A   Clear
12:55 PM 87.8 °F 89.4 °F 64.4 °F 46% 30.03 in 10.0 mi Calm Calm - N/A   Clear
1:15 PM 89.6 °F 92.2 °F 66.2 °F 46% 30.02 in 10.0 mi Calm Calm - N/A   Clear
1:35 PM 91.4 °F 94.0 °F 66.2 °F 43% 30.02 in 10.0 mi Calm Calm - N/A   Clear
1:55 PM 89.6 °F 91.1 °F 64.4 °F 43% 30.00 in 10.0 mi Calm Calm - N/A   Clear
2:15 PM 91.4 °F 94.0 °F 66.2 °F 43% 30.00 in 10.0 mi West 4.6 mph - N/A   Clear
2:35 PM 91.4 °F 93.2 °F 64.4 °F 41% 29.99 in 10.0 mi Calm Calm - N/A   Clear
2:55 PM 89.6 °F 92.2 °F 66.2 °F 46% 29.99 in 10.0 mi North 5.8 mph - N/A   Clear
3:15 PM 91.4 °F 93.2 °F 64.4 °F 41% 29.98 in 10.0 mi Calm Calm - N/A   Clear
3:35 PM 91.4 °F 93.2 °F 64.4 °F 41% 29.97 in 10.0 mi Calm Calm - N/A   Scattered Clouds
3:55 PM 93.2 °F 94.1 °F 62.6 °F 36% 29.96 in 10.0 mi Calm Calm - N/A   Scattered Clouds
4:15 PM 91.4 °F 92.1 °F 62.6 °F 38% 29.95 in 10.0 mi SW 3.5 mph - N/A   Scattered Clouds
4:35 PM 93.2 °F 94.1 °F 62.6 °F 36% 29.95 in 10.0 mi SSE 3.5 mph - N/A   Clear
4:55 PM 95.0 °F 97.0 °F 64.4 °F 36% 29.94 in 10.0 mi ESE 6.9 mph - N/A   Scattered Clouds
5:15 PM 91.4 °F 92.1 °F 62.6 °F 38% 29.93 in 10.0 mi SE 6.9 mph - N/A   Scattered Clouds
5:35 PM 91.4 °F 93.2 °F 64.4 °F 41% 29.93 in 10.0 mi Calm Calm - N/A   Clear
5:55 PM 91.4 °F 93.2 °F 64.4 °F 41% 29.92 in 10.0 mi South 3.5 mph - N/A   Clear
6:15 PM 89.6 °F 91.1 °F 64.4 °F 43% 29.91 in 10.0 mi Calm Calm - N/A   Clear
6:35 PM 91.4 °F 93.2 °F 64.4 °F 41% 29.91 in 10.0 mi Calm Calm - N/A   Clear
6:55 PM 91.4 °F 93.2 °F 64.4 °F 41% 29.90 in 10.0 mi Calm Calm - N/A   Clear
7:15 PM 91.4 °F 93.2 °F 64.4 °F 41% 29.91 in 10.0 mi South 4.6 mph - N/A   Clear
7:35 PM 89.6 °F 91.1 °F 64.4 °F 43% 29.91 in 10.0 mi South 3.5 mph - N/A   Clear
7:55 PM 87.8 °F 89.4 °F 64.4 °F 46% 29.91 in 10.0 mi South 3.5 mph - N/A   Clear
8:15 PM 86.0 °F 87.3 °F 64.4 °F 48% 29.91 in 10.0 mi SSE 5.8 mph - N/A   Clear
8:35 PM 86.0 °F 87.3 °F 64.4 °F 48% 29.92 in 10.0 mi SE 4.6 mph - N/A   Clear
8:55 PM 82.4 °F 84.6 °F 66.2 °F 58% 29.92 in 10.0 mi SSE 5.8 mph - N/A   Clear
9:15 PM 82.4 °F 84.6 °F 66.2 °F 58% 29.93 in 10.0 mi SSE 4.6 mph - N/A   Clear
9:35 PM 82.4 °F 84.6 °F 66.2 °F 58% 29.94 in 10.0 mi SE 17.3 mph 21.9 mph N/A   Clear
9:55 PM 80.6 °F 82.7 °F 66.2 °F 61% 29.95 in 10.0 mi SSE 10.4 mph 19.6 mph N/A   Clear
10:15 PM 80.6 °F 82.7 °F 66.2 °F 61% 29.97 in 10.0 mi SE 11.5 mph - N/A   Scattered Clouds
10:35 PM 80.6 °F 82.7 °F 66.2 °F 61% 29.98 in 10.0 mi ESE 8.1 mph - N/A   Mostly Cloudy
10:55 PM 80.6 °F 82.7 °F 66.2 °F 61% 29.99 in 10.0 mi SE 12.7 mph - N/A   Mostly Cloudy
11:15 PM 78.8 °F - 64.4 °F 61% 30.00 in 10.0 mi ESE 13.8 mph 19.6 mph N/A   Overcast
11:35 PM 77.0 °F - 64.4 °F 65% 30.00 in 10.0 mi SSE 9.2 mph - N/A   Overcast
11:55 PM 77.0 °F - 64.4 °F 65% 30.01 in 10.0 mi South 8.1 mph - N/A   Overcast